Location: Newark
(46.7000°N, 60.6000°W)
Time: 08:09:42
(UTC+00:00)

Vanguard 3 - Pass Details

Date: 07 November 2020
Orbit: 508 x 3262 km, 33.3° (Epoch: 29 November)

Event Time Altitude Azimuth Distance (km) Brightness Sun altitude
Rises 05:19:33 0° 201° (SSW) 4,495 - -54.1°
Reaches altitude 10° 05:22:55 10° 188° (S) 3,907 - -53.7°
Maximum altitude 05:31:06 24° 139° (SE) 3,714 - -52.7°
Exits shadow 05:33:17 23° 126° (SE) 3,957 10.5 -52.5°
Drops below altitude 10° 05:42:35 10° 94° (E) 5,663 11.7 -51.3°
Sets 05:48:51 0° 84° (E) 7,001 12.4 -50.5°
